Location: Wald
(31.7579°N, 86.6655°W)
Time: 21:20:20
(UTC+00:00)

Nadezhda 1 Rocket - Pass Details

Date: 14 July 2020
Orbit: 941 x 1005 km, 83.0° (Epoch: 13 August)

Event Time Altitude Azimuth Distance (km) Brightness Sun altitude
Rises 01:29:25 0° 357° (N) 3,733 7.6 -7.5°
Reaches altitude 10° 01:32:00 10° 0° (N) 2,776 6.8 -7.9°
Maximum altitude 01:38:21 68° 83° (E) 1,067 4.1 -9.1°
Drops below altitude 10° 01:44:35 10° 166° (SSE) 2,728 5.9 -10.2°
Enters shadow 01:46:45 - 168° (SSE) 3,538 6.5 -10.6°
